User: anonymous   Login
Location: Unspecified
(0.0000°N, 0.0000°E)
Time: 09:07:56
(UTC+00:00)
Language:

SATHYABAMASAT - Orbit

View from above orbital plane
View from above orbital plane
View from above satellite
View from above satellite

Ground track
Ground track

The orbit data is extracted from the following two-line orbital elements,

1 41600U 16040B   18020.72400332  .00001586  00000-0  72719-4 0  9994
2 41600  97.4367  85.8614 0015429  41.5036 318.7369 15.21834904 87752
Epoch (UTC): 20 January 2018 17:22:33
Eccentricity: 0.0015429
inclination: 97.4367°
perigee height: 490 km
apogee height: 511 km
right ascension of ascending node: 85.8614°
argument of perigee: 41.5036°
revolutions per day: 15.21834904
mean anomaly at epoch: 318.7369°
orbit number at epoch: 8775

The dashed part of the orbit path shows where the satellite is in the earth's shadow,  

DLR